When you browse on this site, cookies collect data to enhance your experience and personalize the content and advertising you see.
Visit our Privacy Policy to learn more. By continuing to use the site, you agree to this use of cookies and data.
  • In Romania
  • List of Countries
  • For 7 days
  • Water Temperature
  • Satellite Maps
  • Weather Map
  • Weather Widgets
  • user-avatar
    Login

    Hourly Weather Shamordino

    Today, 17 July, Wednesday

    Time Temperature Precipitation Wind Pressure Humidity
    00:00 +15°C° 0.1 mm 2 mps 736 mmHg 93%
    01:00 +15°C° 0.1 mm 2 mps 736 mmHg 93%
    02:00 +14°C° 0 mm 3 mps 736 mmHg 94%
    03:00 +14°C° 0.1 mm 3 mps 736 mmHg 94%
    04:00 +15°C° 0.1 mm 2 mps 736 mmHg 94%
    05:00 +15°C° 0.1 mm 2 mps 736 mmHg 94%
    06:00 +15°C° 0.1 mm 2 mps 736 mmHg 93%
    07:00 +16°C° 0.1 mm 2 mps 735 mmHg 92%
    08:00 +16°C° 0 mm 2 mps 735 mmHg 91%
    09:00 +16°C° 0.2 mm 3 mps 735 mmHg 91%
    10:00 +16°C° 0.2 mm 3 mps 735 mmHg 90%
    11:00 +17°C° 0.2 mm 3 mps 735 mmHg 90%
    12:00 +17°C° 0.1 mm 4 mps 735 mmHg 86%
    13:00 +18°C° 0.1 mm 4 mps 734 mmHg 83%
    14:00 +19°C° 0.1 mm 4 mps 734 mmHg 79%
    15:00 +19°C° 0.2 mm 3 mps 734 mmHg 80%
    16:00 +19°C° 0.2 mm 3 mps 734 mmHg 81%
    17:00 +19°C° 0.2 mm 3 mps 734 mmHg 82%
    18:00 +18°C° 0.5 mm 2 mps 734 mmHg 86%
    19:00 +17°C° 0.5 mm 2 mps 734 mmHg 89%
    20:00 +16°C° 0.5 mm 2 mps 733 mmHg 93%
    21:00 +15°C° 0.5 mm 2 mps 733 mmHg 94%
    22:00 +15°C° 0.5 mm 2 mps 733 mmHg 94%
    23:00 +15°C° 0.5 mm 2 mps 733 mmHg 95%

    Tomorrow, 18 July, Thursday

    Time Temperature Precipitation Wind Pressure Humidity
    00:00 +14°C° 0 mm 2 mps 733 mmHg 95%
    01:00 +13°C° 0 mm 2 mps 733 mmHg 95%
    02:00 +13°C° 0 mm 2 mps 733 mmHg 95%
    03:00 +13°C° 0 mm 2 mps 733 mmHg 95%
    04:00 +13°C° 0 mm 2 mps 733 mmHg 96%
    05:00 +12°C° 0 mm 3 mps 733 mmHg 96%
    06:00 +13°C° 0.1 mm 3 mps 733 mmHg 92%
    07:00 +16°C° 0.1 mm 3 mps 733 mmHg 88%
    08:00 +17°C° 0.1 mm 3 mps 733 mmHg 84%
    09:00 +18°C° 0.5 mm 4 mps 733 mmHg 78%
    10:00 +19°C° 0.5 mm 4 mps 733 mmHg 73%
    11:00 +20°C° 0.5 mm 5 mps 733 mmHg 67%
    12:00 +20°C° 0.4 mm 5 mps 733 mmHg 67%
    13:00 +20°C° 0.4 mm 5 mps 734 mmHg 66%
    14:00 +20°C° 0.4 mm 5 mps 734 mmHg 66%
    15:00 +20°C° 0.2 mm 5 mps 734 mmHg 69%
    16:00 +20°C° 0.2 mm 5 mps 734 mmHg 71%
    17:00 +20°C° 0.2 mm 4 mps 734 mmHg 73%
    18:00 +18°C° 0 mm 4 mps 734 mmHg 79%
    19:00 +17°C° 0 mm 4 mps 734 mmHg 84%
    20:00 +14°C° 0 mm 4 mps 734 mmHg 90%
    21:00 +14°C° 0.1 mm 4 mps 735 mmHg 92%
    22:00 +13°C° 0.1 mm 4 mps 735 mmHg 94%
    23:00 +13°C° 0.1 mm 4 mps 735 mmHg 95%

    Day after tomorrow, 19 July, Friday

    Time Temperature Precipitation Wind Pressure Humidity
    00:00 +13°C° 0.1 mm 4 mps 735 mmHg 95%
    01:00 +13°C° 0.1 mm 4 mps 735 mmHg 94%
    02:00 +13°C° 0.1 mm 4 mps 735 mmHg 93%
    03:00 +13°C° 0 mm 4 mps 735 mmHg 94%
    04:00 +13°C° 0 mm 4 mps 735 mmHg 94%
    05:00 +13°C° 0 mm 5 mps 735 mmHg 95%
    06:00 +14°C° 0 mm 5 mps 736 mmHg 93%
    07:00 +14°C° 0 mm 5 mps 736 mmHg 91%
    08:00 +15°C° 0 mm 5 mps 736 mmHg 89%
    09:00 +15°C° 0 mm 5 mps 736 mmHg 89%
    10:00 +15°C° 0 mm 5 mps 736 mmHg 88%
    11:00 +16°C° 0 mm 5 mps 737 mmHg 87%
    12:00 +16°C° 0 mm 6 mps 737 mmHg 83%
    13:00 +17°C° 0 mm 6 mps 737 mmHg 79%
    14:00 +19°C° 0 mm 6 mps 737 mmHg 75%
    15:00 +19°C° 0.1 mm 6 mps 738 mmHg 76%
    16:00 +19°C° 0.1 mm 5 mps 738 mmHg 77%
    17:00 +20°C° 0.1 mm 5 mps 738 mmHg 78%
    18:00 +18°C° 0.1 mm 4 mps 738 mmHg 82%
    19:00 +17°C° 0.1 mm 4 mps 738 mmHg 86%
    20:00 +16°C° 0.1 mm 3 mps 739 mmHg 90%
    21:00 +14°C° 0 mm 4 mps 739 mmHg 91%
    22:00 +14°C° 0 mm 4 mps 739 mmHg 92%
    23:00 +13°C° 0 mm 4 mps 739 mmHg 93%

    20 July, Saturday

    Time Temperature Precipitation Wind Pressure Humidity
    00:00 +13°C° 0 mm 4 mps 739 mmHg 93%
    01:00 +13°C° 0 mm 4 mps 740 mmHg 93%
    02:00 +12°C° 0 mm 3 mps 740 mmHg 94%
    03:00 +12°C° 0 mm 4 mps 740 mmHg 93%
    04:00 +12°C° 0 mm 4 mps 740 mmHg 92%
    05:00 +13°C° 0 mm 4 mps 740 mmHg 92%
    06:00 +14°C° 0 mm 4 mps 741 mmHg 86%
    07:00 +16°C° 0 mm 5 mps 741 mmHg 80%
    08:00 +19°C° 0 mm 5 mps 741 mmHg 74%
    09:00 +20°C° 0 mm 5 mps 741 mmHg 70%
    10:00 +21°C° 0 mm 5 mps 741 mmHg 65%
    11:00 +22°C° 0 mm 5 mps 742 mmHg 61%
    12:00 +23°C° 0.1 mm 6 mps 742 mmHg 59%
    13:00 +23°C° 0.1 mm 6 mps 742 mmHg 57%
    14:00 +23°C° 0.1 mm 6 mps 742 mmHg 55%
    15:00 +23°C° 0.1 mm 5 mps 742 mmHg 60%
    16:00 +22°C° 0.1 mm 5 mps 742 mmHg 65%
    17:00 +22°C° 0.1 mm 4 mps 742 mmHg 70%
    18:00 +20°C° 0 mm 4 mps 742 mmHg 76%
    19:00 +18°C° 0 mm 3 mps 742 mmHg 82%
    20:00 +16°C° 0 mm 2 mps 743 mmHg 87%
    21:00 +16°C° 0 mm 3 mps 743 mmHg 89%
    22:00 +14°C° 0 mm 3 mps 743 mmHg 92%
    23:00 +14°C° 0 mm 3 mps 743 mmHg 94%

    21 July, Sunday

    Time Temperature Precipitation Wind Pressure Humidity
    00:00 +13°C° 0 mm 3 mps 743 mmHg 95%
    01:00 +13°C° 0 mm 3 mps 743 mmHg 96%
    02:00 +13°C° 0 mm 2 mps 743 mmHg 96%
    03:00 +14°C° 0 mm 2 mps 743 mmHg 96%
    04:00 +14°C° 0 mm 2 mps 743 mmHg 96%
    05:00 +14°C° 0 mm 2 mps 744 mmHg 96%
    06:00 +16°C° 0 mm 2 mps 744 mmHg 89%
    07:00 +18°C° 0 mm 2 mps 744 mmHg 83%
    08:00 +19°C° 0 mm 3 mps 744 mmHg 76%
    09:00 +20°C° 0 mm 3 mps 744 mmHg 72%
    10:00 +21°C° 0 mm 3 mps 744 mmHg 68%
    11:00 +23°C° 0 mm 4 mps 744 mmHg 64%
    12:00 +23°C° 0.1 mm 4 mps 744 mmHg 62%
    13:00 +25°C° 0.1 mm 4 mps 743 mmHg 60%
    14:00 +25°C° 0.1 mm 4 mps 743 mmHg 58%
    15:00 +25°C° 0.1 mm 4 mps 743 mmHg 62%
    16:00 +25°C° 0.1 mm 3 mps 743 mmHg 66%
    17:00 +24°C° 0.1 mm 3 mps 743 mmHg 70%
    18:00 +21°C° 0.1 mm 3 mps 743 mmHg 76%
    19:00 +19°C° 0.1 mm 2 mps 743 mmHg 83%
    20:00 +17°C° 0.1 mm 2 mps 743 mmHg 90%
    21:00 +16°C° 0 mm 2 mps 743 mmHg 91%
    22:00 +16°C° 0 mm 2 mps 743 mmHg 93%
    23:00 +15°C° 0 mm 2 mps 743 mmHg 94%

    22 July, Monday

    Time Temperature Precipitation Wind Pressure Humidity
    00:00 +14°C° 0 mm 2 mps 743 mmHg 95%
    01:00 +14°C° 0 mm 2 mps 743 mmHg 95%
    02:00 +14°C° 0 mm 2 mps 743 mmHg 96%
    03:00 +14°C° 0 mm 2 mps 743 mmHg 95%
    04:00 +14°C° 0 mm 2 mps 743 mmHg 95%
    05:00 +14°C° 0 mm 2 mps 743 mmHg 95%
    06:00 +16°C° 0 mm 2 mps 743 mmHg 90%
    07:00 +18°C° 0 mm 1 mps 743 mmHg 84%
    08:00 +20°C° 0 mm 1 mps 743 mmHg 78%
    09:00 +20°C° 0.1 mm 2 mps 743 mmHg 73%
    10:00 +21°C° 0.1 mm 2 mps 743 mmHg 67%
    11:00 +23°C° 0.1 mm 2 mps 743 mmHg 62%
    12:00 +24°C° 0.1 mm 2 mps 743 mmHg 61%
    13:00 +24°C° 0.1 mm 3 mps 743 mmHg 60%
    14:00 +24°C° 0.1 mm 3 mps 743 mmHg 58%
    15:00 +24°C° 0 mm 3 mps 743 mmHg 61%
    16:00 +24°C° 0 mm 3 mps 742 mmHg 63%
    17:00 +23°C° 0 mm 2 mps 742 mmHg 65%
    18:00 +21°C° 0 mm 2 mps 742 mmHg 72%
    19:00 +19°C° 0 mm 2 mps 742 mmHg 78%
    20:00 +18°C° 0 mm 1 mps 742 mmHg 85%
    21:00 +16°C° 0 mm 1 mps 742 mmHg 87%
    22:00 +15°C° 0 mm 1 mps 742 mmHg 89%
    23:00 +15°C° 0 mm 1 mps 742 mmHg 90%
    Show more